SCP
0 0 0 0 0 0 0 0 0 0 0 0 0 0 0 0 0 0 0 0 0 0 0 0 0 0 0 0 0 0 0 0 0 0 0 0 0 0 0 0 0 0 0
0 0 0 0 0 0 0 -0 0 0 0 0 0 0 0 0 0 0 0 0 0 0 0 0 0 0 0 0 0 0 0 0 0 0 0 0 0 0 0 0 0 0 0
0 0 0 0 0 0 0 0 0 0 0 0 0 0 0 0 0 0 0 0 0 0 0 0 0 0 0 0 0 0 0 0 0 0 0 0 0 0 0 0 0 0 0
0 0 0 0 0 0 0 0 0 0 0 0 0 0 0 0 0 0 0 0 0 0 0 0 0 0 -0 0 0 0 0 0 0 0 0 0 0 0 0 0 0 0 0
0 0 0 0 0 0 0 0 0 0 0 0 0 0 0 0 0 0 0 0 0 0 0 0 0 0 0 0 0 0 0 0 0 0 0 0 0 0 0 0 0 0 0
0 0 0 0 0 0 0 0 0 0 0 0 0 0 0 0 0 0 0 0 0 0 0 0 0 0 0 0 0 0 0 0 0 0 0 0 0 0 0 0 0 0 0
0 0 0 0 0 0 0 0 0 0 0 0 0 0 0 0 0 0 0 0 0 0 0 0 0 0 0 0 0 0 0 0 0 0 0 0 0 0 0 0 0 0 -0
0 0 0 0 0 0 0 0 0 0 0 0 0 0 0 0 0 0 0 0 0 0 0 0 0 0 0 0 0 0 0 0 0 0 0 0 0 0 0 0 0 -0 -0
0 0 0 0 0 0 0 0 0 0 0 0 0 0 0 0 0 0 0 0 0 0 0 0 -0 -0 0 0 0 0 0 0 0 0 0 0 0 0 0 0 0 -0 0
0 0 0 0 0 0 0 0 0 0 0 0 0 0 0 0 0 0 0 0 0 0 0 0 0 0 0 0 0 0 0 0 0 0 0 0 0 0 0 0 0 -0 0
0 0 0 0 0 0 0 0 0 0 0 0 0 0 0 0 0 0 -0 0 0 0 0 0 0 0 0 0 -0 -0 -0 -0 0 -0 0 0 0 0 0 -0 -0 -0 0
0 0 0 0 0 0 0 0 0 0 0 0 0 0 0 0 0 0 0 -0 -0 0 0 0 0 0 0 -0 -0 -0 -0 -0 -0 0 -0 -0 0 0 0 0 0 0 0
0 0 0 0 0 0 0 0 0 0 0 0 0 0 0 0 0 0 0 -0 -0 0 0 0 0 0 0 -0 -0 -0 0 0 -0 -0 -0 -0 0 0 0 0 0 0 0
0 0 0 0 0 0 0 0 0 0 0 0 0 0 0 0 0 0 0 0 -0 0 0 0 0 0 0 -0 -0 0 0 0 -0 -0 -0 -0 -0 -0 0 0 0 -0 -0
0 0 0 0 0 0 0 0 0 0 0 0 0 0 0 0 -0 0 -0 0 -0 -0 -0 0 0 0 0 -0 0 0 0 0 0 -0 -0 -0 -0 -0 -0 0 0 0 0
0 0 0 0 0 0 0 0 0 0 0 0 0 -0 -0 0 0 0 -0 -0 -0 -0 0 -0 0 0 0 -0 0 0 0 0 0 0 0 -0 -0 -0 0 0 0 0 0
0 0 0 0 0 0 0 0 0 0 0 0 0 -0 0 -0 -0 0 0 0 0 0 0 -0 0 -0 0 -0 -0 -0 0 0 0 0 0 0 -0 0 -0 -0 -0 0 0
0 0 0 0 0 0 0 0 0 0 0 0 0 0 0 -0 -0 -0 0 0 0 0 0 -0 -0 0 0 -0 -0 0 0 -0 0 0 0 0 0 0 0 0 0 0 0
0 0 0 0 0 0 0 0 0 0 0 0 0 0 0 -0 0 0 0 0 0 0 0 -0 -0 0 -0 -0 -0 -0 0 0 0 0 0 0 0 -0 0 0 0 0 -0
0 0 0 0 0 0 0 0 0 0 0 0 0 0 -0 0 0 0 0 0 0 0 0 -0 0 -0 -0 -0 -0 0 0 0 0 -0 -0 -0 0 -0 0 0 0 0 0
0 0 0 0 0 0 0 0 0 0 0 0 0 0 0 -0 -0 -0 -0 0 0 0 0 0 0 -0 -0 -0 -0 0 0 0 -0 0 -0 -0 -0 -0 0 0 0 0 0
0 0 0 0 0 0 0 0 0 0 0 0 0 0 0 0 0 -0 -0 0 0 0 0 0 0 0 -0 -0 -0 0 0 0 0 0 0 0 -0 -0 0 0 0 0 0
0 0 0 0 0 0 0 0 0 0 0 0 0 0 0 0 0 0 0 0 0 0 0 0 0 0 0 0 0 -0 0 0 0 0 0 0 0 0 0 0 0 0 0
0 0 0 0 0 0 0 0 0 0 0 0 0 0 0 0 0 0 0 0 0 0 0 0 0 0 0 0 0 -0 0 -0 -0 -0 0 0 0 0 0 0 0 0 0
0 0 0 0 0 0 0 0 0 0 0 0 0 0 0 0 0 0 0 0 -0 0 0 0 0 0 0 0 0 0 0 0 -0 -0 -0 0 0 0 0 0 0 0 0
0 0 0 0 0 0 0 0 0 0 0 0 0 0 0 0 0 0 0 -0 -0 -0 0 0 0 0 0 0 0 0 0 0 0 0 0 0 0 0 0 0 0 0 0
Wind_Speed_500mb
16 25 27 30 31 25 18 31 24 26 20 17 25 28 18 16 15 16 19 17 16 17 19 17 20 21 20 20 21 20 21 22 20 26 26 27 30 31 32 33 36 48 47
11 19 27 37 35 26 34 26 27 24 19 18 23 21 15 15 17 15 19 17 18 16 15 19 19 21 18 20 22 20 21 20 20 23 29 29 21 20 18 27 32 36 48
14 13 18 27 31 24 25 22 22 24 23 26 19 21 21 19 18 19 19 18 15 15 17 19 17 20 17 20 22 23 22 25 25 23 18 20 19 25 25 19 25 28 32
14 11 11 18 25 27 25 23 24 24 24 21 18 21 15 19 21 22 23 21 15 16 16 17 20 20 18 20 22 22 24 25 24 27 19 25 32 28 29 21 21 21 24
17 14 14 15 18 22 23 21 24 26 21 21 24 18 18 20 24 24 25 22 14 16 16 17 20 21 20 18 21 22 24 25 23 30 29 31 34 37 40 38 28 27 25
13 15 16 15 14 18 18 19 21 23 20 19 18 16 17 23 24 23 19 17 18 17 15 17 17 21 15 18 18 19 21 25 23 31 33 32 38 41 43 35 49 39 28
11 16 18 14 18 16 16 20 20 22 21 17 16 16 15 23 23 20 16 16 18 18 17 16 17 17 16 16 17 18 19 19 28 43 37 37 33 32 41 43 39 30 27
18 18 18 20 24 26 22 26 22 22 23 19 16 16 15 16 18 16 11 13 16 14 13 13 16 16 15 16 20 18 18 20 24 28 36 43 32 25 31 24 29 23 22
22 19 17 19 19 23 26 22 22 23 25 21 18 19 17 18 16 14 14 11 14 15 17 18 19 17 14 18 21 21 20 20 20 25 34 43 42 11 6 23 21 26 13
20 22 23 26 27 27 28 25 24 27 26 26 26 20 23 23 19 17 19 16 17 19 16 15 17 16 15 18 21 20 21 17 17 22 28 33 41 17 16 11 21 14 13
27 28 29 30 31 30 33 35 31 26 26 30 34 29 23 26 26 27 25 21 22 18 21 16 14 12 16 17 19 18 18 15 13 19 20 21 33 34 36 12 21 10 10
29 33 35 34 38 38 38 38 39 39 35 30 32 39 34 29 31 32 32 27 27 22 22 21 15 15 12 11 12 13 13 13 16 17 20 22 18 23 27 47 20 10 11
33 33 34 35 36 38 40 41 40 40 37 30 32 37 41 31 32 35 28 30 28 23 27 21 11 12 8 4 6 9 9 12 16 20 21 25 22 24 21 25 30 27 27
30 33 35 37 37 40 43 44 45 43 42 35 31 38 37 32 34 35 28 30 27 26 22 13 11 9 7 6 3 5 7 11 13 17 21 24 26 23 23 23 27 29 32
30 35 40 41 39 41 43 46 48 49 44 39 36 35 35 33 36 26 21 23 22 25 19 14 13 9 11 8 7 5 2 6 8 13 15 20 25 25 22 20 20 19 21
30 35 41 41 40 41 44 46 48 48 50 53 37 30 34 41 33 25 22 26 25 21 15 15 17 12 10 18 9 2 4 4 5 6 8 13 19 19 20 19 19 21 17
32 34 38 40 40 41 42 44 45 45 46 51 47 37 38 36 39 23 23 26 22 22 17 16 19 16 15 18 16 12 6 4 3 4 6 5 13 16 10 13 16 15 14
34 35 37 41 41 42 40 43 46 46 46 48 55 39 31 23 32 24 25 26 25 27 21 17 20 20 17 16 13 12 13 9 2 2 4 2 4 12 12 6 8 10 10
38 38 40 42 45 44 42 45 43 43 44 44 45 50 24 18 30 27 22 24 25 26 21 17 18 20 22 20 19 15 13 12 9 7 6 1 3 3 11 6 4 5 3
42 43 44 46 44 45 40 41 43 40 41 43 42 41 32 25 31 35 29 27 23 24 23 20 17 20 20 20 26 25 18 17 16 13 9 6 9 7 3 6 3 3 5
40 39 40 42 45 46 38 35 41 38 41 41 38 36 33 30 26 36 46 38 29 30 28 25 22 20 20 20 21 20 23 20 18 17 16 13 9 10 7 3 4 3 2
37 37 40 40 39 36 36 38 38 42 41 40 36 31 31 29 29 27 22 43 33 34 32 30 24 22 21 18 16 20 23 23 19 18 16 18 17 16 16 11 6 6 6
35 36 37 35 32 34 33 35 37 38 39 40 38 33 28 27 31 25 18 20 31 28 32 30 28 28 30 19 18 13 13 22 24 15 20 20 17 21 23 22 18 14 8
33 34 31 32 34 36 38 38 40 40 40 40 40 35 29 28 26 26 20 21 17 26 24 31 32 29 28 25 17 15 14 21 24 27 26 24 20 16 21 26 25 24 19
29 28 32 34 34 36 35 34 35 37 36 36 35 34 28 28 26 23 24 20 25 31 29 33 28 27 27 26 26 23 16 14 17 22 22 21 20 18 18 19 20 21 22
27 31 32 31 33 31 32 37 37 41 35 35 33 31 29 26 24 24 22 20 15 19 21 15 36 25 33 28 25 30 28 19 19 18 20 22 25 25 25 25 24 23 25
Wind_Direction_500mb
243 233 233 238 247 260 263 269 267 288 312 324 343 342 328 322 331 338 321 313 301 308 308 312 309 310 314 307 322 332 334 331 307 302 297 289 279 268 256 253 247 239 242
249 243 237 244 250 284 257 254 250 272 295 312 328 327 316 312 316 321 324 314 305 305 309 305 301 296 306 310 318 323 333 334 319 301 299 289 290 258 270 249 248 245 237
266 280 259 244 245 242 245 253 254 273 294 301 320 323 320 316 312 313 314 304 305 298 299 305 300 304 312 306 314 326 325 322 326 314 291 299 294 302 292 256 246 241 240
254 268 282 265 256 246 256 257 256 268 280 306 307 304 309 305 306 309 303 302 299 294 296 301 304 300 287 287 317 320 321 325 315 321 305 280 272 279 280 268 256 248 239
258 270 292 292 273 256 256 267 262 269 274 297 313 308 299 309 313 309 308 307 305 302 300 301 299 287 289 300 311 317 318 334 313 325 311 309 288 277 260 273 265 259 252
297 285 293 288 294 280 275 269 260 257 256 290 290 288 286 305 309 316 318 315 304 301 299 303 291 288 303 311 311 315 324 336 332 330 321 309 296 281 274 278 264 263 256
348 315 297 294 296 286 288 282 269 251 242 268 281 278 276 308 325 324 325 337 324 314 304 297 295 297 304 320 321 317 327 339 358 355 342 325 311 296 275 279 245 245 250
352 343 339 344 337 332 311 291 272 264 248 259 276 277 274 300 322 311 322 346 354 346 333 313 298 302 318 329 328 331 318 323 343 353 358 8 337 303 263 252 221 234 225
14 10 7 0 352 336 325 303 276 268 258 259 278 285 272 281 290 302 307 311 340 342 322 328 296 300 318 330 333 331 327 311 330 338 352 5 5 15 268 211 222 221 212
8 6 1 359 358 358 341 322 301 286 268 259 269 286 276 273 283 282 287 282 313 321 333 331 310 283 299 315 325 327 322 315 319 341 357 28 29 37 54 190 201 214 184
345 345 343 342 342 338 325 320 312 304 285 273 280 278 281 268 279 273 279 291 293 303 306 308 324 294 295 297 316 333 336 334 353 360 2 24 38 63 53 99 170 169 160
346 340 339 342 344 342 333 321 318 309 301 289 271 268 268 272 274 278 274 286 282 289 310 295 299 305 292 285 316 341 24 14 19 16 14 30 42 56 72 76 115 146 150
348 350 349 349 349 347 343 339 331 318 306 293 290 285 263 255 274 275 278 276 279 278 311 295 281 303 282 268 318 12 41 34 28 25 22 34 47 65 82 101 100 109 106
349 345 344 341 340 341 341 341 338 331 318 306 291 288 260 251 268 273 279 275 267 270 281 283 256 285 249 235 322 348 14 32 36 34 34 39 44 57 73 95 101 111 107
341 343 343 338 336 337 337 336 335 335 330 314 291 286 262 247 279 266 260 269 264 262 262 266 250 245 237 229 261 291 320 20 33 49 46 42 49 51 61 86 100 124 127
338 339 343 342 339 338 336 335 337 339 336 338 313 282 272 250 266 273 266 260 256 263 270 261 249 224 220 229 248 234 352 80 25 34 44 40 41 41 56 76 91 102 123
329 332 336 341 339 339 338 337 338 336 339 334 335 306 276 289 252 269 253 250 269 256 263 250 243 223 218 236 240 263 198 199 320 330 35 57 43 53 51 67 84 95 103
326 327 329 332 333 333 333 334 336 336 334 338 339 329 298 258 242 279 253 251 254 256 250 242 231 226 212 221 230 214 209 246 246 277 303 328 58 45 60 93 104 106 102
323 321 321 321 322 321 320 324 330 335 334 337 338 338 311 255 255 284 273 255 241 247 260 246 226 219 223 221 229 239 236 242 233 221 272 312 272 346 24 64 159 160 132
320 316 316 316 314 318 314 320 323 330 334 333 339 339 339 269 256 264 285 257 246 248 246 257 247 232 225 234 229 236 232 236 232 220 243 259 294 230 334 50 90 163 218
324 322 321 323 325 320 320 326 325 331 333 329 330 337 337 326 324 268 257 259 260 249 242 243 250 234 232 227 237 236 225 229 231 226 222 229 232 211 228 85 95 179 211
333 331 329 329 330 331 336 333 332 330 328 327 325 330 335 334 326 308 288 258 252 256 257 246 247 230 227 232 241 241 242 224 224 232 227 235 239 235 236 235 256 352 6
335 335 334 333 335 334 338 335 332 332 331 329 326 324 327 334 338 335 306 262 278 269 250 243 235 230 227 221 229 247 280 228 223 216 231 230 256 240 236 243 263 270 288
337 338 339 342 339 337 335 331 328 328 327 323 322 324 326 332 333 338 334 336 304 270 270 244 245 228 229 234 227 231 256 214 217 219 228 241 248 248 225 246 259 254 245
345 344 340 339 340 341 340 339 339 337 334 332 325 320 324 324 328 325 327 335 352 305 301 260 236 233 229 233 235 207 201 211 217 221 220 237 234 238 241 240 241 246 250
345 343 343 342 341 342 345 347 347 346 336 336 330 325 323 318 313 315 317 323 332 354 272 302 238 233 228 226 228 227 228 227 227 215 230 238 240 241 243 244 247 251 250
Wind_Speed_850mb
16 25 27 30 31 25 18 31 24 26 20 17 25 28 18 16 15 16 19 17 16 17 19 17 20 21 20 20 21 20 21 22 20 26 26 27 30 31 32 33 36 48 47
11 19 27 37 35 26 34 26 27 24 19 18 23 21 15 15 17 15 19 17 18 16 15 19 19 21 18 20 22 20 21 20 20 23 29 29 21 20 18 27 32 36 48
14 13 18 27 31 24 25 22 22 24 23 26 19 21 21 19 18 19 19 18 15 15 17 19 17 20 17 20 22 23 22 25 25 23 18 20 19 25 25 19 25 28 32
14 11 11 18 25 27 25 23 24 24 24 21 18 21 15 19 21 22 23 21 15 16 16 17 20 20 18 20 22 22 24 25 24 27 19 25 32 28 29 21 21 21 24
17 14 14 15 18 22 23 21 24 26 21 21 24 18 18 20 24 24 25 22 14 16 16 17 20 21 20 18 21 22 24 25 23 30 29 31 34 37 40 38 28 27 25
13 15 16 15 14 18 18 19 21 23 20 19 18 16 17 23 24 23 19 17 18 17 15 17 17 21 15 18 18 19 21 25 23 31 33 32 38 41 43 35 49 39 28
11 16 18 14 18 16 16 20 20 22 21 17 16 16 15 23 23 20 16 16 18 18 17 16 17 17 16 16 17 18 19 19 28 43 37 37 33 32 41 43 39 30 27
18 18 18 20 24 26 22 26 22 22 23 19 16 16 15 16 18 16 11 13 16 14 13 13 16 16 15 16 20 18 18 20 24 28 36 43 32 25 31 24 29 23 22
22 19 17 19 19 23 26 22 22 23 25 21 18 19 17 18 16 14 14 11 14 15 17 18 19 17 14 18 21 21 20 20 20 25 34 43 42 11 6 23 21 26 13
20 22 23 26 27 27 28 25 24 27 26 26 26 20 23 23 19 17 19 16 17 19 16 15 17 16 15 18 21 20 21 17 17 22 28 33 41 17 16 11 21 14 13
27 28 29 30 31 30 33 35 31 26 26 30 34 29 23 26 26 27 25 21 22 18 21 16 14 12 16 17 19 18 18 15 13 19 20 21 33 34 36 12 21 10 10
29 33 35 34 38 38 38 38 39 39 35 30 32 39 34 29 31 32 32 27 27 22 22 21 15 15 12 11 12 13 13 13 16 17 20 22 18 23 27 47 20 10 11
33 33 34 35 36 38 40 41 40 40 37 30 32 37 41 31 32 35 28 30 28 23 27 21 11 12 8 4 6 9 9 12 16 20 21 25 22 24 21 25 30 27 27
30 33 35 37 37 40 43 44 45 43 42 35 31 38 37 32 34 35 28 30 27 26 22 13 11 9 7 6 3 5 7 11 13 17 21 24 26 23 23 23 27 29 32
30 35 40 41 39 41 43 46 48 49 44 39 36 35 35 33 36 26 21 23 22 25 19 14 13 9 11 8 7 5 2 6 8 13 15 20 25 25 22 20 20 19 21
30 35 41 41 40 41 44 46 48 48 50 53 37 30 34 41 33 25 22 26 25 21 15 15 17 12 10 18 9 2 4 4 5 6 8 13 19 19 20 19 19 21 17
32 34 38 40 40 41 42 44 45 45 46 51 47 37 38 36 39 23 23 26 22 22 17 16 19 16 15 18 16 12 6 4 3 4 6 5 13 16 10 13 16 15 14
34 35 37 41 41 42 40 43 46 46 46 48 55 39 31 23 32 24 25 26 25 27 21 17 20 20 17 16 13 12 13 9 2 2 4 2 4 12 12 6 8 10 10
38 38 40 42 45 44 42 45 43 43 44 44 45 50 24 18 30 27 22 24 25 26 21 17 18 20 22 20 19 15 13 12 9 7 6 1 3 3 11 6 4 5 3
42 43 44 46 44 45 40 41 43 40 41 43 42 41 32 25 31 35 29 27 23 24 23 20 17 20 20 20 26 25 18 17 16 13 9 6 9 7 3 6 3 3 5
40 39 40 42 45 46 38 35 41 38 41 41 38 36 33 30 26 36 46 38 29 30 28 25 22 20 20 20 21 20 23 20 18 17 16 13 9 10 7 3 4 3 2
37 37 40 40 39 36 36 38 38 42 41 40 36 31 31 29 29 27 22 43 33 34 32 30 24 22 21 18 16 20 23 23 19 18 16 18 17 16 16 11 6 6 6
35 36 37 35 32 34 33 35 37 38 39 40 38 33 28 27 31 25 18 20 31 28 32 30 28 28 30 19 18 13 13 22 24 15 20 20 17 21 23 22 18 14 8
33 34 31 32 34 36 38 38 40 40 40 40 40 35 29 28 26 26 20 21 17 26 24 31 32 29 28 25 17 15 14 21 24 27 26 24 20 16 21 26 25 24 19
29 28 32 34 34 36 35 34 35 37 36 36 35 34 28 28 26 23 24 20 25 31 29 33 28 27 27 26 26 23 16 14 17 22 22 21 20 18 18 19 20 21 22
27 31 32 31 33 31 32 37 37 41 35 35 33 31 29 26 24 24 22 20 15 19 21 15 36 25 33 28 25 30 28 19 19 18 20 22 25 25 25 25 24 23 25
Wind_Direction_850mb
243 233 233 238 247 260 263 269 267 288 312 324 343 342 328 322 331 338 321 313 301 308 308 312 309 310 314 307 322 332 334 331 307 302 297 289 279 268 256 253 247 239 242
249 243 237 244 250 284 257 254 250 272 295 312 328 327 316 312 316 321 324 314 305 305 309 305 301 296 306 310 318 323 333 334 319 301 299 289 290 258 270 249 248 245 237
266 280 259 244 245 242 245 253 254 273 294 301 320 323 320 316 312 313 314 304 305 298 299 305 300 304 312 306 314 326 325 322 326 314 291 299 294 302 292 256 246 241 240
254 268 282 265 256 246 256 257 256 268 280 306 307 304 309 305 306 309 303 302 299 294 296 301 304 300 287 287 317 320 321 325 315 321 305 280 272 279 280 268 256 248 239
258 270 292 292 273 256 256 267 262 269 274 297 313 308 299 309 313 309 308 307 305 302 300 301 299 287 289 300 311 317 318 334 313 325 311 309 288 277 260 273 265 259 252
297 285 293 288 294 280 275 269 260 257 256 290 290 288 286 305 309 316 318 315 304 301 299 303 291 288 303 311 311 315 324 336 332 330 321 309 296 281 274 278 264 263 256
348 315 297 294 296 286 288 282 269 251 242 268 281 278 276 308 325 324 325 337 324 314 304 297 295 297 304 320 321 317 327 339 358 355 342 325 311 296 275 279 245 245 250
352 343 339 344 337 332 311 291 272 264 248 259 276 277 274 300 322 311 322 346 354 346 333 313 298 302 318 329 328 331 318 323 343 353 358 8 337 303 263 252 221 234 225
14 10 7 0 352 336 325 303 276 268 258 259 278 285 272 281 290 302 307 311 340 342 322 328 296 300 318 330 333 331 327 311 330 338 352 5 5 15 268 211 222 221 212
8 6 1 359 358 358 341 322 301 286 268 259 269 286 276 273 283 282 287 282 313 321 333 331 310 283 299 315 325 327 322 315 319 341 357 28 29 37 54 190 201 214 184
345 345 343 342 342 338 325 320 312 304 285 273 280 278 281 268 279 273 279 291 293 303 306 308 324 294 295 297 316 333 336 334 353 360 2 24 38 63 53 99 170 169 160
346 340 339 342 344 342 333 321 318 309 301 289 271 268 268 272 274 278 274 286 282 289 310 295 299 305 292 285 316 341 24 14 19 16 14 30 42 56 72 76 115 146 150
348 350 349 349 349 347 343 339 331 318 306 293 290 285 263 255 274 275 278 276 279 278 311 295 281 303 282 268 318 12 41 34 28 25 22 34 47 65 82 101 100 109 106
349 345 344 341 340 341 341 341 338 331 318 306 291 288 260 251 268 273 279 275 267 270 281 283 256 285 249 235 322 348 14 32 36 34 34 39 44 57 73 95 101 111 107
341 343 343 338 336 337 337 336 335 335 330 314 291 286 262 247 279 266 260 269 264 262 262 266 250 245 237 229 261 291 320 20 33 49 46 42 49 51 61 86 100 124 127
338 339 343 342 339 338 336 335 337 339 336 338 313 282 272 250 266 273 266 260 256 263 270 261 249 224 220 229 248 234 352 80 25 34 44 40 41 41 56 76 91 102 123
329 332 336 341 339 339 338 337 338 336 339 334 335 306 276 289 252 269 253 250 269 256 263 250 243 223 218 236 240 263 198 199 320 330 35 57 43 53 51 67 84 95 103
326 327 329 332 333 333 333 334 336 336 334 338 339 329 298 258 242 279 253 251 254 256 250 242 231 226 212 221 230 214 209 246 246 277 303 328 58 45 60 93 104 106 102
323 321 321 321 322 321 320 324 330 335 334 337 338 338 311 255 255 284 273 255 241 247 260 246 226 219 223 221 229 239 236 242 233 221 272 312 272 346 24 64 159 160 132
320 316 316 316 314 318 314 320 323 330 334 333 339 339 339 269 256 264 285 257 246 248 246 257 247 232 225 234 229 236 232 236 232 220 243 259 294 230 334 50 90 163 218
324 322 321 323 325 320 320 326 325 331 333 329 330 337 337 326 324 268 257 259 260 249 242 243 250 234 232 227 237 236 225 229 231 226 222 229 232 211 228 85 95 179 211
333 331 329 329 330 331 336 333 332 330 328 327 325 330 335 334 326 308 288 258 252 256 257 246 247 230 227 232 241 241 242 224 224 232 227 235 239 235 236 235 256 352 6
335 335 334 333 335 334 338 335 332 332 331 329 326 324 327 334 338 335 306 262 278 269 250 243 235 230 227 221 229 247 280 228 223 216 231 230 256 240 236 243 263 270 288
337 338 339 342 339 337 335 331 328 328 327 323 322 324 326 332 333 338 334 336 304 270 270 244 245 228 229 234 227 231 256 214 217 219 228 241 248 248 225 246 259 254 245
345 344 340 339 340 341 340 339 339 337 334 332 325 320 324 324 328 325 327 335 352 305 301 260 236 233 229 233 235 207 201 211 217 221 220 237 234 238 241 240 241 246 250
345 343 343 342 341 342 345 347 347 346 336 336 330 325 323 318 313 315 317 323 332 354 272 302 238 233 228 226 228 227 228 227 227 215 230 238 240 241 243 244 247 251 250